Погода в Соузге

Россия / Республика Алтай     51°53′13″N   85°51′04″E
темп.,
°C
ветер,
м/с
пор.,
м/с
влажн.,
%
обл.,
%
осадки,
мм/ч
давл.,
гПа
погр.,
м
24 сентября, пт
пт2401:00+3юв119180 0.1 102374
04:00+3ююв128698 0.0 102279
07:00+3зюз1184100 0.0 102322
10:00+4зсз1489100 0.3 1024642
13:00+6сз456695 0.5 10251167
16:00+6сз566581 0.1 10261081
19:00+3зсз258757 0.3 1029267
22:00+1зюз229598 0.3 1030147
25 сентября, сб
сб2501:00+1ююз239186 0.6 1030235
04:000ю2286100 0.0 102932
07:00−1ю3386100 0.0 103047
10:00+5зюз465584 0.0 10281091
13:00+8з5744100 0.0 10261721
16:00+8з6844100 0.0 10251523
19:00+5зюз3458100 0.0 102458
22:00+4ю3465100 0.0 102277
26 сентября, вс
вс2601:00+4ююв2267100 0.0 102051
04:00+3ююв2284100 0.3 101843
07:00+3юз1383100 0.7 1017165
10:00+1зсз3899100 1.7 1019394
13:00+1зсз4995100 2.4 1022774
16:00+2зсз6874100 0.3 10231348
19:00−1з228482 0.6 102526
22:00−2юз2298100 0.2 102686
27 сентября, пн
пн2701:00−2ююз229747 0.6 102637
04:00−5ююз119557 0.0 102712
07:00−6ююв229412 0.0 102813
10:00−1вюв12786 0.0 1028329
13:00+4всв33575 0.0 10261167
16:00+6всв55435 0.0 10251499
19:00+1всв496598 0.0 1024226
22:00−2всв228689 0.0 102325
28 сентября, вт
вт2801:00−4юв118923 0.0 102210
04:00−2юв1183100 0.0 102021
07:00−1юв1181100 0.0 101913
10:00+4в115374 0.0 1019303
13:00+10с22365 0.0 1018824
16:00+11ссв32345 0.0 1016832
19:00+5св225419 0.0 101610
22:00+2ю226972 0.0 101512